Location: ?astrovice
(49.6513°N, 14.9287°E)
Time: 02:19:09
(UTC+00:00)

X-37B - Pass Details

Date: 07 August 2021
Orbit: 381 x 393 km, 45.0° (Epoch: 29 August)

Event Time Altitude Azimuth Distance (km) Brightness Sun altitude
Exits shadow 02:33:16 15° 239° (WSW) 1,144 2.3 -9.7°
Maximum altitude 02:35:28 34° 177° (S) 644 1.4 -9.5°
Drops below altitude 10° 02:38:22 10° 110° (ESE) 1,398 3.8 -9.1°
Sets 02:40:32 0° 101° (E) 2,251 5.1 -8.8°
